GFSNE_850_spd_144.txt.gz
Wind_Speed
43 40 34 33 32 28 27 27 25 18 24 21 21 21 20 22 26 30 29 30 34 36 37 36 36 37 38 37 36 36 34 34 33 34 34 33 33 32
44 40 40 35 31 31 30 31 30 27 22 15 18 21 18 16 15 19 26 23 25 30 35 39 39 40 42 38 40 39 38 35 35 34 34 34 34 34
41 43 41 40 35 32 31 31 31 31 32 28 21 15 18 20 20 19 18 20 22 25 29 32 34 40 43 38 42 42 41 40 38 36 35 35 35 36
43 41 43 42 39 36 36 34 32 33 32 29 28 22 22 21 19 22 22 22 23 25 27 27 31 34 42 45 42 45 44 44 43 42 41 39 37 38
41 42 41 42 39 36 36 35 33 32 34 33 32 27 23 25 26 27 27 27 25 26 26 29 32 30 33 39 46 47 48 49 46 46 46 43 42 40
41 40 41 42 37 35 35 37 35 31 33 33 30 28 31 31 28 29 28 28 28 28 28 29 31 30 35 38 39 47 53 54 50 48 46 45 44 42
40 41 41 38 36 33 31 34 35 32 31 31 29 28 32 30 27 25 26 26 25 27 28 29 32 35 41 42 44 43 44 54 55 52 49 50 47 40
40 41 34 29 28 28 28 24 23 26 25 31 33 28 30 26 25 24 28 27 31 29 27 28 29 33 32 38 35 42 45 43 56 54 52 48 50 48
37 32 32 30 27 23 22 24 24 24 27 26 27 24 24 26 27 31 34 31 29 29 31 32 33 35 36 38 38 35 36 41 45 53 53 54 50 49
22 24 26 26 23 22 29 26 17 26 24 23 26 24 25 26 31 33 31 32 34 33 28 29 29 29 29 29 30 30 30 31 41 46 44 42 44 51
19 19 23 28 29 25 22 21 19 27 23 20 22 24 27 28 26 28 31 25 29 28 25 23 23 21 20 20 20 22 21 21 33 38 41 46 48 44
19 26 27 16 13 18 18 15 17 20 19 19 21 20 21 21 20 19 19 20 23 21 19 15 16 14 9 12 11 10 10 12 17 24 30 28 24 23
18 12 15 16 17 16 19 17 17 18 17 16 16 15 15 13 12 11 9 10 12 14 13 12 11 13 15 9 13 12 14 16 18 19 18 19 19 20
17 19 17 18 17 15 15 14 14 15 16 16 14 12 11 9 9 9 10 10 10 11 12 12 12 12 17 16 15 16 15 14 15 15 14 15 15 15
14 13 11 14 16 15 14 15 13 12 12 13 12 10 9 9 8 8 8 8 8 9 9 8 10 12 15 19 18 20 20 14 11 11 11 12 14 15
7 8 7 7 9 9 9 10 11 12 12 11 11 10 9 7 6 5 4 3 4 4 5 7 9 11 11 15 14 19 20 14 15 12 12 13 17 16
7 7 7 7 7 8 7 7 8 7 7 8 7 6 5 3 3 3 2 2 2 4 4 5 6 8 9 10 13 17 19 13 15 15 13 14 14 15
12 13 13 11 11 11 10 10 9 8 9 8 8 7 6 6 5 6 6 7 9 11 11 12 13 15 16 17 14 18 15 16 16 14 13 12 12 12
15 17 17 16 16 15 14 13 13 12 11 11 11 12 12 14 14 15 15 15 16 16 16 14 15 16 23 24 20 15 15 15 16 15 14 9 8 8
19 19 18 16 16 16 15 15 16 15 14 14 14 15 15 16 16 16 16 18 19 17 15 11 10 13 18 26 24 19 14 16 14 12 13 13 9 8
22 21 21 19 17 16 16 15 15 15 14 15 15 15 15 14 15 15 16 16 16 16 17 15 12 9 12 18 23 21 17 14 11 11 10 12 10 8
23 22 19 19 19 18 18 17 16 17 16 17 17 17 17 17 18 18 17 17 17 18 20 19 15 11 13 13 18 18 16 12 10 7 8 8 9 8
17 17 18 18 16 14 13 15 15 15 14 14 15 15 15 16 16 16 18 19 19 18 18 17 14 9 12 13 13 14 13 11 8 7 5 4 6 7

GFSNE_850_spd_147.txt.gz
Wind_Speed
54 48 44 41 40 43 39 35 28 22 27 28 22 18 16 17 16 21 25 25 27 28 30 32 31 32 32 33 35 36 36 37 35 32 31 34 36 36
54 50 45 42 40 41 41 37 34 34 25 24 23 20 15 15 13 16 20 23 25 26 27 32 35 36 37 38 39 40 40 40 39 37 35 34 34 36
52 49 47 44 41 40 40 36 34 32 35 24 18 16 19 18 18 19 17 17 19 21 22 25 29 34 37 41 42 43 43 43 41 41 41 39 35 36
49 46 50 45 41 43 44 40 37 32 32 36 33 27 25 20 19 21 19 18 20 22 22 23 26 29 32 33 37 40 44 47 43 44 45 44 41 39
38 46 47 46 48 46 45 43 37 34 35 34 34 32 30 24 24 24 22 23 22 22 22 22 24 26 28 31 33 38 40 46 50 48 49 49 48 44
36 41 41 43 47 50 48 44 39 36 35 35 36 35 32 29 27 27 24 24 23 23 24 26 26 28 30 32 33 36 37 41 44 52 54 54 53 50
43 43 42 42 44 47 50 47 42 37 34 35 37 37 34 33 32 30 26 23 24 24 23 25 26 29 30 32 35 37 40 44 44 47 49 57 59 56
39 36 36 39 42 40 44 42 34 31 31 34 39 38 36 34 31 26 27 25 24 26 27 26 22 24 29 31 33 35 37 36 38 40 42 46 48 61
34 31 37 38 40 42 41 36 32 30 29 30 31 34 30 36 31 29 25 26 24 28 26 25 25 26 25 27 30 32 34 34 38 38 38 39 41 43
35 31 32 32 38 40 34 32 29 28 28 32 34 34 30 36 29 26 23 22 25 26 23 24 22 21 21 23 26 27 26 26 26 25 27 29 26 31
24 28 29 28 33 29 23 25 27 32 32 27 25 24 20 20 16 20 24 24 24 23 20 19 20 19 17 18 20 21 22 23 23 21 16 17 22 37
16 18 15 15 17 20 25 34 36 29 22 25 22 22 23 20 21 23 22 21 20 15 16 16 16 12 7 10 11 13 16 19 18 13 8 10 23 33
9 11 21 26 22 20 14 13 14 14 13 15 15 15 16 17 17 16 15 14 14 16 11 9 10 10 10 8 8 8 7 6 3 3 6 10 14 15
19 20 13 12 14 13 18 18 15 13 14 16 16 16 15 13 11 9 8 9 12 12 13 14 12 10 11 9 5 6 6 5 6 7 8 8 8 10
10 7 11 15 16 18 16 13 13 14 14 15 15 14 12 11 9 8 8 9 10 11 12 11 10 10 10 10 9 8 8 7 6 6 7 8 9 12
8 8 8 10 13 15 13 15 16 16 16 15 15 14 12 11 10 9 8 8 8 9 10 11 11 10 8 9 8 9 11 8 12 10 10 10 9 8
11 11 10 9 10 10 11 12 11 12 13 13 13 13 12 10 10 9 8 7 7 7 8 8 8 8 8 6 9 11 12 9 11 10 10 11 11 9
14 17 17 16 15 14 14 13 13 12 12 11 11 11 11 10 10 10 9 9 10 11 11 11 9 11 14 13 9 13 13 12 13 11 10 11 12 11
19 20 20 19 19 17 16 15 15 14 13 12 12 12 11 11 11 12 12 12 14 13 13 12 12 12 18 19 17 11 13 14 14 12 9 8 9 10
25 24 22 20 18 18 17 16 16 15 14 14 13 13 13 13 14 15 14 14 15 16 16 13 11 10 10 17 21 18 11 12 13 12 12 10 9 7
26 25 22 20 19 18 16 15 14 14 13 13 14 13 12 13 15 15 14 14 14 14 15 15 13 10 10 15 22 22 18 14 12 13 12 9 7 5
21 22 21 20 19 18 18 17 16 15 14 14 14 13 13 12 15 15 15 15 15 15 16 16 14 13 15 16 20 21 18 14 12 10 9 9 7 5
17 17 17 16 16 16 15 15 14 15 14 14 13 14 14 15 15 15 16 17 17 17 15 16 15 14 15 13 15 16 13 12 9 8 9 8 7 6

GFSNE_850_spd_150.txt.gz
Wind_Speed
60 63 60 55 57 52 42 38 37 32 36 32 27 28 26 27 27 25 24 23 26 28 29 29 29 29 29 28 28 28 30 32 32 35 34 34 32 34
58 58 61 57 55 54 50 46 41 38 36 34 30 25 23 22 23 23 23 22 24 26 28 28 28 29 30 32 32 33 34 36 37 39 40 39 40 37
46 51 60 58 58 54 54 49 46 43 39 30 29 25 25 23 23 22 21 21 21 24 26 28 27 27 30 32 34 37 39 39 41 41 42 42 44 39
56 25 48 57 62 54 52 52 53 48 45 39 31 29 31 27 24 25 24 22 20 19 20 22 23 24 23 27 30 34 36 40 45 46 42 44 46 45
52 39 39 57 66 60 54 49 52 50 45 42 36 33 31 30 30 28 28 27 24 23 22 24 23 24 25 27 29 32 35 36 38 40 45 47 50 52
57 52 39 56 64 62 57 51 51 49 46 44 40 36 36 35 34 33 32 31 30 28 24 23 24 24 25 27 29 31 34 36 38 41 43 44 45 50
52 40 46 54 64 59 56 51 52 50 48 46 47 41 37 39 41 39 36 34 35 31 28 27 24 25 27 28 31 33 35 36 39 41 42 46 50 50
53 40 70 56 57 51 50 50 52 51 49 49 47 45 44 42 41 41 38 38 39 38 30 27 25 28 29 28 31 30 34 38 39 43 47 49 47 45
43 31 56 55 41 41 39 43 39 45 46 46 46 44 45 43 40 41 39 41 41 37 30 27 25 26 25 26 28 26 27 30 32 34 35 36 36 39
33 34 30 32 39 38 36 37 40 47 43 44 42 35 33 32 33 33 34 42 43 34 31 26 25 24 23 22 22 23 26 25 21 23 27 29 30 30
27 26 27 30 32 35 26 35 44 44 37 40 35 30 30 30 31 32 38 23 18 25 25 23 22 20 19 18 18 20 17 15 16 21 16 16 17 16
7 30 29 26 30 28 29 38 38 30 22 30 30 34 33 32 28 25 24 22 26 24 24 23 21 17 11 15 15 12 9 11 13 16 15 16 17 12
6 7 10 17 30 23 16 35 29 19 24 22 18 15 18 22 22 23 23 23 22 23 17 20 19 18 15 9 11 7 4 6 8 9 12 10 9 7
4 9 12 15 16 20 22 16 16 17 18 17 14 11 17 17 19 19 18 19 20 20 18 18 15 14 16 15 11 8 4 2 1 1 3 5 6 5
12 13 13 14 14 17 17 18 20 20 18 16 17 19 19 17 16 15 15 14 15 17 17 17 16 14 14 12 9 8 6 5 4 3 3 3 3 5
11 10 10 10 12 14 19 18 17 16 15 16 17 18 18 17 16 15 15 15 15 16 17 15 14 13 12 10 8 7 8 4 8 7 6 7 7 7
12 13 14 15 13 11 13 14 12 13 14 16 17 18 18 17 16 15 14 14 15 16 16 15 15 13 11 8 9 10 11 10 10 9 8 11 12 11
16 19 20 19 19 17 14 14 13 12 12 13 13 13 13 13 14 13 11 10 11 11 11 11 11 12 12 12 9 12 11 11 11 10 9 10 12 9
24 24 24 22 21 20 17 15 15 13 13 12 12 13 12 11 10 11 11 10 12 12 12 11 10 10 15 17 18 12 9 13 14 14 12 10 13 11
27 26 25 22 22 21 18 16 15 13 11 10 9 10 10 10 11 12 13 13 15 16 16 14 11 10 11 21 22 18 12 12 13 14 12 11 10 10
26 24 23 24 21 18 16 14 13 13 12 12 12 13 12 12 14 15 15 14 14 15 16 16 14 11 9 15 24 24 19 14 10 10 11 8 9 10
22 22 21 20 19 18 15 14 13 13 13 12 13 13 13 12 13 14 14 14 14 14 15 16 14 12 14 17 22 24 20 16 13 10 8 5 6 4
20 18 17 16 15 14 14 14 15 15 14 14 13 13 12 13 14 13 13 13 13 14 15 18 18 16 16 17 19 20 17 15 12 8 8 5 3 3

GFSNE_850_spd_156.txt.gz
Wind_Speed
50 54 47 48 28 44 46 46 41 25 36 39 42 42 47 49 46 44 42 40 37 33 34 34 37 38 37 36 34 33 31 30 29 28 28 28 28 28
45 46 47 53 55 50 15 44 46 42 32 42 40 34 33 44 45 41 42 41 38 36 35 33 35 38 38 39 36 35 33 33 32 32 31 31 32 33
40 43 45 46 41 59 48 40 50 46 44 34 32 27 30 30 35 32 32 34 37 38 35 33 32 36 38 38 36 35 33 34 34 35 35 35 34 35
36 42 44 43 43 41 55 32 45 51 49 39 38 35 30 32 28 28 29 31 33 35 35 33 31 32 35 36 36 36 36 36 36 37 38 39 40 41
32 39 44 42 46 45 57 51 42 48 49 41 39 38 35 29 32 29 28 29 31 32 33 33 32 32 32 34 36 37 37 36 38 38 40 40 40 39
30 36 38 42 47 45 53 58 53 48 49 46 42 40 39 37 33 33 34 32 31 33 33 34 34 34 35 36 36 35 36 38 36 36 36 38 39 40
36 35 40 40 42 48 58 62 62 50 48 48 46 46 44 40 40 39 35 37 36 34 33 33 35 35 36 36 37 37 38 36 36 36 36 38 40 42
42 39 40 38 39 47 55 61 53 57 54 48 47 49 48 45 45 42 40 38 36 38 39 39 38 37 37 38 41 41 38 38 36 36 37 38 39 43
36 44 38 42 40 46 48 60 56 54 59 55 51 52 50 48 47 48 46 44 42 41 41 42 41 41 42 44 43 42 37 40 37 33 35 36 40 35
28 38 50 39 44 46 50 55 55 49 46 45 49 50 51 48 45 43 47 46 44 40 41 39 41 40 37 36 39 34 34 40 33 31 30 30 31 28
24 28 39 46 48 52 46 50 57 58 48 55 47 47 41 41 40 39 44 43 43 42 38 37 38 41 35 32 32 29 25 32 26 25 24 24 23 22
15 15 31 44 46 47 45 48 56 61 59 48 47 52 41 44 41 37 36 39 40 40 42 40 37 40 30 28 26 20 14 19 21 22 17 14 8 7
24 15 12 38 46 46 42 49 54 48 48 52 46 54 47 48 42 38 36 36 37 44 39 43 43 44 25 26 27 22 18 15 13 10 8 2 5 5
27 22 17 14 41 51 47 51 49 50 49 54 48 50 48 45 40 36 26 27 27 34 32 38 35 40 35 22 22 22 18 15 12 9 5 6 7 9
23 20 12 5 4 24 42 52 51 46 50 52 49 46 38 38 38 37 30 30 30 31 25 21 26 29 30 28 26 27 24 17 13 11 12 10 7 8
28 23 21 18 21 15 22 34 30 42 48 48 46 41 34 36 34 30 33 33 34 32 28 26 27 25 29 23 21 25 21 15 18 14 13 12 12 10
30 32 34 33 33 29 24 18 19 29 35 38 46 44 40 35 31 36 33 31 30 28 27 25 25 24 21 20 22 20 21 16 17 16 15 15 14 12
39 43 43 42 40 35 30 26 20 19 19 27 31 33 34 32 33 29 27 27 27 28 28 27 27 27 24 20 17 21 21 21 20 19 18 18 19 17
46 45 43 41 39 37 33 30 25 19 17 20 20 19 22 24 24 25 24 23 26 26 25 26 25 24 28 27 24 19 23 24 24 22 20 19 21 19
46 45 44 41 38 36 34 31 26 20 19 18 17 16 17 18 19 20 21 24 25 26 26 24 22 21 23 31 28 23 17 20 23 23 23 22 21 19
41 41 40 39 38 36 33 30 28 26 22 20 18 15 14 14 18 19 21 22 24 25 25 22 19 18 18 24 34 30 21 17 13 16 23 21 21 19
36 36 36 35 35 34 33 32 29 27 25 23 22 18 16 15 17 18 19 21 21 21 22 22 22 20 23 27 34 35 30 23 19 19 18 14 15 12
33 32 31 31 31 31 31 30 30 29 26 24 21 19 16 17 17 17 18 18 20 21 23 26 25 23 27 29 31 32 30 27 25 20 15 11 7 10

GFSNE_850_spd_162.txt.gz
Wind_Speed
28 32 30 31 34 35 36 34 36 37 41 39 35 35 42 49 52 52 52 50 48 47 46 44 42 41 37 35 36 37 35 32 30 28 26 25 25 25
28 31 35 32 35 37 40 38 40 41 44 45 41 37 41 46 52 53 52 51 49 48 47 46 45 43 42 39 38 38 38 38 35 33 31 29 28 27
32 31 33 32 36 39 39 43 43 43 44 56 44 46 34 38 44 46 52 52 52 48 48 47 47 45 43 42 40 39 39 38 36 36 35 33 31 30
34 36 37 36 36 41 41 45 44 44 47 46 62 42 46 43 38 42 44 45 46 49 48 49 49 46 43 41 40 40 39 39 38 37 36 35 33 32
38 38 40 40 41 38 43 39 47 47 46 48 45 51 54 33 41 37 40 40 41 44 46 46 47 46 44 42 39 39 40 40 39 39 37 36 34 34
40 39 38 39 38 34 37 43 39 47 47 48 45 45 46 41 34 41 37 35 35 39 39 45 46 47 46 44 41 39 38 38 40 40 40 39 37 37
39 36 36 38 36 36 37 41 36 41 47 49 47 47 49 29 38 38 36 34 35 38 38 40 43 50 50 48 46 42 40 38 39 41 42 40 39 37
39 36 35 38 35 32 31 36 51 47 45 49 38 41 51 47 42 40 40 37 36 37 39 39 39 41 47 49 47 45 42 39 37 38 38 37 37 37
35 35 40 35 36 34 32 31 42 47 51 30 39 38 44 44 36 41 43 40 39 38 40 40 40 40 43 45 46 44 42 40 39 37 36 36 36 37
33 32 34 37 34 35 37 37 38 45 42 41 42 40 41 44 58 45 47 40 37 36 37 39 41 39 41 41 43 42 42 40 39 38 37 37 39 41
34 30 30 32 34 36 36 42 41 45 40 43 43 44 38 41 40 43 38 42 44 43 36 40 43 39 37 38 39 40 42 41 40 39 39 42 45 44
35 31 30 31 33 36 35 37 46 48 41 40 43 45 46 43 40 47 47 49 43 36 45 43 39 42 28 35 35 36 40 41 40 40 40 39 36 37
33 34 32 27 28 29 27 35 41 42 45 38 43 41 48 48 46 50 48 50 47 40 42 47 47 46 31 31 38 35 32 32 33 32 31 30 26 25
33 32 32 27 27 27 22 24 39 36 43 34 43 42 45 50 51 48 46 47 44 43 36 40 50 52 51 34 32 39 35 31 27 26 24 23 23 20
32 33 35 31 32 32 28 19 14 19 40 35 42 41 39 43 45 46 46 46 45 45 41 39 42 46 53 47 45 41 40 34 30 28 25 20 19 19
38 41 40 41 41 38 41 34 23 6 24 34 35 40 40 42 43 44 46 44 47 53 47 43 42 43 50 52 46 44 46 38 38 32 28 28 25 24
43 46 49 50 51 52 49 46 38 26 4 19 27 38 41 40 38 39 44 45 42 44 49 43 49 48 45 54 47 47 48 41 42 40 38 36 31 25
45 50 52 54 52 52 54 51 46 40 27 8 9 21 32 38 38 38 43 53 53 49 47 45 46 45 38 35 36 47 50 48 47 44 41 39 33 27
48 50 51 52 54 53 52 51 48 43 34 24 11 5 15 26 32 36 43 48 47 47 48 46 48 47 40 29 26 40 48 51 51 45 40 35 34 28
45 47 49 50 51 51 51 51 49 45 42 36 25 14 6 12 23 30 33 37 41 47 45 46 45 45 49 49 36 37 42 49 51 47 43 36 31 29
42 44 44 46 48 48 49 49 48 47 42 41 35 27 16 10 13 18 24 28 31 35 39 40 38 41 44 39 43 41 39 41 43 44 41 38 38 32
40 39 41 43 45 46 46 47 47 46 46 41 35 30 23 17 14 15 20 23 26 29 30 29 26 29 30 40 45 46 46 39 36 34 35 34 34 21
33 38 39 40 41 43 44 44 43 42 41 40 38 32 28 24 21 21 23 28 32 32 29 31 31 34 40 48 50 45 42 39 40 37 29 28 21 25

GFSNE_850_spd_165.txt.gz
Wind_Speed
30 29 29 29 32 33 34 31 35 37 41 35 34 36 39 37 42 45 49 51 49 47 50 50 49 47 44 40 39 37 36 34 32 32 30 29 27 27
28 28 29 34 31 33 32 36 39 39 48 40 37 35 34 42 44 52 49 52 52 50 50 51 51 49 47 44 40 39 39 36 36 35 31 30 28 28
31 31 32 33 33 34 33 33 39 43 46 47 45 40 42 46 46 49 52 56 53 55 54 52 53 52 49 47 44 41 39 38 37 38 38 35 32 31
35 36 35 35 37 35 37 38 37 41 46 49 48 45 43 51 51 43 51 53 53 53 55 56 54 55 52 50 48 45 42 39 38 38 38 41 38 35
35 37 37 38 38 35 37 38 38 39 45 50 53 47 44 42 44 38 53 56 52 49 48 56 55 56 55 53 50 48 46 43 40 39 38 38 37 36
40 38 36 34 37 35 36 43 40 40 40 44 51 45 45 44 43 43 49 46 43 47 48 51 57 55 56 54 52 49 48 46 42 41 40 38 38 38
38 36 36 35 36 37 37 38 39 38 40 42 49 45 44 41 43 40 48 38 44 51 49 46 45 52 54 55 53 52 50 47 44 41 39 38 39 39
36 36 37 38 34 35 39 37 40 39 44 47 43 48 45 43 41 40 37 49 41 58 51 49 44 44 49 54 57 54 52 48 44 41 41 40 40 40
35 36 38 35 35 37 39 42 45 44 42 47 52 51 51 40 38 42 47 38 53 44 51 42 44 45 49 50 52 53 51 49 47 44 43 41 41 42
34 35 33 36 37 37 46 51 50 45 43 40 44 49 55 50 38 52 55 36 46 42 37 41 46 43 44 44 49 53 51 50 49 46 44 42 40 41
37 33 31 35 37 41 41 44 48 50 44 42 41 44 48 57 50 45 47 43 39 47 36 41 45 43 42 42 40 44 50 50 48 46 45 43 41 40
40 35 33 34 36 37 36 36 43 47 47 46 42 40 51 52 54 46 38 45 48 45 47 42 42 45 31 37 37 41 45 46 45 46 45 43 43 41
39 39 36 35 33 32 32 31 37 43 49 50 46 41 45 49 48 47 41 50 52 44 42 46 44 47 34 29 39 39 40 44 46 46 45 45 44 43
37 38 39 38 35 32 32 35 36 34 37 41 46 47 46 41 48 50 46 40 54 56 45 39 49 51 50 36 36 41 40 40 40 40 40 40 40 38
33 35 38 39 40 40 38 38 39 38 40 35 34 45 48 47 45 46 50 47 38 53 45 43 43 47 49 45 46 42 46 42 40 39 37 36 35 34
36 39 41 44 45 47 46 45 44 45 42 42 26 27 37 43 42 41 42 46 42 47 44 44 42 38 41 46 46 45 46 43 45 41 37 33 30 28
37 42 46 50 51 53 53 53 51 51 50 49 35 9 30 35 39 36 36 41 35 30 43 46 43 44 42 45 48 45 46 47 40 45 41 37 34 33
36 42 47 49 50 54 55 56 54 54 53 49 45 27 5 16 29 29 28 31 32 36 33 42 46 48 43 36 42 43 44 46 44 47 45 45 42 37
40 40 44 48 49 52 54 54 54 54 52 50 45 38 22 3 7 15 23 29 34 36 39 46 46 48 48 28 24 31 44 45 46 46 42 43 45 39
39 41 43 46 49 50 52 54 56 56 54 52 48 43 31 21 8 4 13 21 28 33 36 40 44 44 44 41 31 34 36 42 47 51 47 39 38 34
39 40 41 44 47 49 50 52 53 54 53 53 49 46 40 29 19 6 3 12 21 27 34 40 41 40 37 41 36 37 35 38 52 58 52 44 39 36
37 38 39 41 46 48 49 50 52 53 53 52 53 49 39 31 25 16 6 5 12 21 25 26 27 30 32 37 46 47 48 47 46 48 47 49 51 31
34 36 36 38 42 45 48 48 49 49 50 50 51 49 41 32 26 22 17 12 12 15 20 22 23 25 28 39 50 49 47 49 51 46 36 38 39 28

GFSNE_850_spd_171.txt.gz
Wind_Speed
19 21 25 29 25 26 28 29 32 40 41 33 34 33 34 35 36 29 29 25 22 25 30 39 65 59 69 65 60 54 50 47 44 44 43 42 44 41
27 29 27 26 26 26 26 27 29 36 46 37 41 37 42 42 42 36 32 35 30 27 30 34 48 50 75 65 62 57 51 49 48 44 45 44 43 42
27 28 28 26 26 26 27 28 30 33 42 43 39 35 35 46 46 38 32 31 37 31 28 34 39 42 45 84 58 59 54 51 50 48 46 45 44 41
29 28 27 27 28 28 29 30 31 31 38 47 43 47 39 38 44 38 33 31 33 38 34 34 35 38 40 51 60 58 56 56 52 51 49 48 44 43
27 26 26 27 28 27 29 31 32 33 36 41 42 39 42 40 36 42 35 35 29 36 39 36 35 34 37 45 56 63 54 57 56 52 51 49 47 44
24 23 24 26 27 28 28 30 33 34 37 42 44 42 40 45 41 42 39 27 30 24 30 36 35 33 33 46 61 67 68 58 58 56 53 52 50 46
24 24 28 23 22 24 27 30 35 40 43 46 45 41 37 40 36 40 39 40 36 33 34 33 34 35 39 39 47 58 64 65 61 58 57 54 52 48
27 29 28 23 27 25 28 32 31 34 37 38 40 40 39 38 40 40 40 39 39 31 28 30 34 36 37 38 38 50 46 78 61 59 59 56 52 49
27 30 29 27 29 30 37 35 34 30 29 31 35 38 41 36 38 42 44 38 39 39 33 40 35 41 40 36 39 46 56 52 59 61 61 59 55 50
29 30 28 30 30 36 37 37 36 36 31 29 33 39 41 40 40 45 50 54 56 49 40 46 44 37 43 39 39 45 51 44 60 66 61 60 56 53
33 31 29 29 34 35 35 35 37 38 37 36 32 31 33 34 34 37 40 43 49 52 43 40 43 43 43 45 46 47 49 40 34 54 64 61 59 55
35 31 29 30 34 33 33 34 39 42 42 40 38 36 33 32 29 28 34 42 41 41 40 41 41 38 45 45 42 42 55 55 50 54 65 62 60 58
37 35 32 32 33 32 29 31 34 38 40 41 41 40 37 35 32 27 29 35 44 51 48 22 28 39 40 23 36 43 47 49 53 49 52 53 55 60
36 32 31 30 30 31 30 31 34 37 41 43 43 43 42 40 35 33 35 37 42 52 51 37 46 38 43 38 35 34 44 48 49 51 53 52 52 55
33 29 30 32 33 34 35 37 38 43 45 47 47 46 44 44 40 42 41 39 42 44 53 51 46 49 46 44 44 43 41 44 46 45 45 54 58 59
32 32 35 37 39 41 43 43 43 45 47 48 48 47 46 49 47 45 47 43 41 42 43 52 47 47 53 51 49 47 45 46 50 48 47 51 55 57
33 35 40 42 44 46 47 48 47 48 50 50 50 51 51 53 53 50 48 43 38 33 37 44 50 51 55 47 45 47 49 44 42 47 49 50 52 54
34 39 39 43 44 45 47 51 51 51 51 52 51 51 53 53 54 53 50 42 36 25 34 41 46 51 52 44 48 49 55 52 51 54 53 54 52 50
36 38 37 38 45 43 44 47 51 50 51 52 52 53 55 52 53 49 49 44 43 10 34 44 49 52 38 33 43 54 57 58 55 52 56 55 55 51
35 34 37 35 44 43 43 48 51 51 52 54 54 53 55 52 52 52 50 49 44 25 11 35 46 52 43 43 38 41 44 55 60 58 54 50 47 48
36 34 34 33 40 44 42 46 48 50 51 53 54 54 55 54 54 55 51 50 42 34 14 14 22 29 43 42 37 35 36 35 48 53 57 54 50 44
36 34 34 32 38 42 42 46 48 49 51 51 53 53 53 55 56 55 52 51 43 35 22 5 7 8 27 37 38 37 34 31 35 40 43 38 52 38
36 33 34 32 36 40 42 45 46 47 49 49 51 51 51 54 55 51 50 47 40 36 26 13 1 9 16 25 35 37 40 38 36 35 38 33 33 24